| time (UTC) | temp F | wind direction | speed knots | gust knots | rain 1hr in | rain 24hr in | rain mn in | humidity % | barometer mb |
| 20260506044503 | 73 | 120 | 1.7 | 6.1 | 0.00 | 0.01 | 0.00 | 83 | 1014.8 |
| 20260506044002 | 73 | 125 | 1.7 | 6.1 | 0.00 | 0.01 | 0.00 | 83 | 1014.8 |
| 20260506043503 | 73 | 121 | 1.7 | 4.3 | 0.00 | 0.01 | 0.00 | 83 | 1014.8 |
| 20260506043002 | 73 | 117 | 1.7 | 4.3 | 0.00 | 0.01 | 0.00 | 83 | 1014.8 |
| 20260506042502 | 74 | 123 | 0.9 | 4.3 | 0.00 | 0.01 | 0.00 | 83 | 1014.8 |
| 20260506042003 | 74 | 122 | 1.7 | 4.3 | 0.00 | 0.01 | 0.00 | 83 | 1014.8 |
| 20260506041502 | 74 | 118 | 0.9 | 4.3 | 0.00 | 0.01 | 0.00 | 83 | 1014.8 |
| 20260506041002 | 74 | 102 | 0.9 | 3.5 | 0.00 | 0.01 | 0.00 | 83 | 1014.8 |
| 20260506040503 | 74 | 88 | 0.9 | 3.5 | 0.00 | 0.01 | 0.00 | 83 | 1014.8 |
| 20260506040003 | 74 | 79 | 0.0 | 1.7 | 0.00 | 0.01 | 0.00 | 83 | 1014.8 |
| 20260506035502 | 74 | 79 | 0.0 | 1.7 | 0.00 | 0.01 | 0.01 | 83 | 1015.0 |
| 20260506035003 | 74 | 92 | 0.0 | 2.6 | 0.00 | 0.01 | 0.01 | 83 | 1015.0 |
| 20260506034502 | 74 | 118 | 0.9 | 2.6 | 0.00 | 0.01 | 0.01 | 83 | 1014.9 |
| 20260506034003 | 74 | 137 | 0.9 | 2.6 | 0.00 | 0.01 | 0.01 | 82 | 1014.8 |
| 20260506033502 | 74 | 121 | 0.9 | 2.6 | 0.00 | 0.01 | 0.01 | 82 | 1014.8 |
| 20260506033002 | 74 | 55 | 0.0 | 1.7 | 0.00 | 0.01 | 0.01 | 82 | 1014.8 |
| 20260506032502 | 74 | 13 | 0.0 | 1.7 | 0.00 | 0.01 | 0.01 | 82 | 1014.8 |
| 20260506032002 | 74 | 13 | 0.0 | 1.7 | 0.00 | 0.01 | 0.01 | 82 | 1014.8 |
| 20260506031503 | 74 | 13 | 0.0 | 1.7 | 0.00 | 0.01 | 0.01 | 82 | 1014.8 |
| 20260506031002 | 74 | 13 | 0.0 | 1.7 | 0.00 | 0.01 | 0.01 | 82 | 1014.8 |
| 20260506030502 | 74 | 13 | 0.0 | 1.7 | 0.00 | 0.01 | 0.01 | 82 | 1014.8 |
| 20260506030002 | 75 | 13 | 0.0 | 0.9 | 0.00 | 0.01 | 0.01 | 82 | 1014.7 |
| 20260506025502 | 75 | 13 | 0.0 | 1.7 | 0.00 | 0.01 | 0.01 | 82 | 1014.7 |
| 20260506025002 | 75 | 13 | 0.0 | 1.7 | 0.00 | 0.01 | 0.01 | 82 | 1014.8 |
| 20260506024502 | 75 | 13 | 0.0 | 0.9 | 0.00 | 0.01 | 0.01 | 82 | 1014.8 |
| 20260506024002 | 75 | 0 | 0.0 | 0.0 | 0.00 | 0.01 | 0.01 | 82 | 1014.7 |
| 20260506023524 | 75 | 0 | 0.0 | 0.0 | 0.00 | 0.01 | 0.01 | 82 | 1014.6 |
| 20260506023002 | 75 | 0 | 0.0 | 0.0 | 0.00 | 0.01 | 0.01 | 82 | 1014.4 |
| 20260506022502 | 75 | 0 | 0.0 | 0.0 | 0.00 | 0.01 | 0.01 | 81 | 1014.3 |
| 20260506022002 | 75 | 0 | 0.0 | 0.0 | 0.00 | 0.01 | 0.01 | 81 | 1014.4 |
| 20260506021502 | 75 | 0 | 0.0 | 0.0 | 0.00 | 0.01 | 0.01 | 82 | 1014.3 |
| 20260506021002 | 75 | 0 | 0.0 | 0.0 | 0.00 | 0.01 | 0.01 | 81 | 1014.3 |
| 20260506020502 | 75 | 0 | 0.0 | 0.0 | 0.00 | 0.01 | 0.01 | 81 | 1014.3 |
| 20260506020002 | 76 | 0 | 0.0 | 0.0 | 0.00 | 0.01 | 0.01 | 81 | 1014.3 |
| 20260506015502 | 76 | 0 | 0.0 | 0.0 | 0.00 | 0.01 | 0.01 | 81 | 1014.3 |
| 20260506015002 | 76 | 0 | 0.0 | 0.0 | 0.00 | 0.01 | 0.01 | 81 | 1014.3 |
| 20260506014502 | 76 | 0 | 0.0 | 0.0 | 0.00 | 0.01 | 0.01 | 81 | 1014.3 |
| 20260506014002 | 76 | 0 | 0.0 | 0.0 | 0.00 | 0.01 | 0.01 | 81 | 1014.2 |
| 20260506013502 | 76 | 0 | 0.0 | 0.0 | 0.00 | 0.01 | 0.01 | 81 | 1014.1 |
| 20260506013003 | 76 | 0 | 0.0 | 0.0 | 0.00 | 0.01 | 0.01 | 81 | 1014.0 |
| 20260506012502 | 76 | 322 | 0.0 | 3.5 | 0.00 | 0.01 | 0.01 | 80 | 1013.9 |
| 20260506012002 | 76 | 303 | 0.9 | 3.5 | 0.00 | 0.01 | 0.01 | 80 | 1013.7 |
| 20260506011504 | 76 | 308 | 0.9 | 2.6 | 0.00 | 0.01 | 0.01 | 80 | 1013.8 |
| 20260506011002 | 76 | 317 | 0.9 | 4.3 | 0.00 | 0.01 | 0.01 | 80 | 1013.7 |
| 20260506010502 | 76 | 308 | 1.7 | 5.2 | 0.00 | 0.01 | 0.01 | 80 | 1013.7 |
| 20260506010002 | 76 | 303 | 2.6 | 7.8 | 0.00 | 0.01 | 0.01 | 80 | 1013.7 |
| 20260506005502 | 76 | 305 | 3.5 | 7.8 | 0.00 | 0.01 | 0.01 | 80 | 1013.6 |
| 20260506005002 | 76 | 301 | 3.5 | 7.0 | 0.00 | 0.01 | 0.01 | 80 | 1013.6 |
| 20260506004503 | 76 | 296 | 3.5 | 6.1 | 0.00 | 0.01 | 0.01 | 80 | 1013.7 |
| 20260506004002 | 77 | 295 | 3.5 | 6.1 | 0.00 | 0.01 | 0.01 | 80 | 1013.7 |
| 20260506003502 | 77 | 299 | 3.5 | 7.8 | 0.00 | 0.01 | 0.01 | 79 | 1013.6 |
| 20260506003002 | 77 | 299 | 3.5 | 7.8 | 0.00 | 0.01 | 0.01 | 79 | 1013.6 |
| 20260506002502 | 77 | 301 | 2.6 | 6.1 | 0.00 | 0.01 | 0.01 | 79 | 1013.4 |
| 20260506002003 | 77 | 311 | 1.7 | 5.2 | 0.00 | 0.01 | 0.01 | 79 | 1013.3 |
| 20260506001502 | 77 | 301 | 2.6 | 5.2 | 0.00 | 0.01 | 0.01 | 79 | 1013.3 |
| 20260506001003 | 77 | 290 | 3.5 | 6.1 | 0.00 | 0.01 | 0.01 | 79 | 1013.2 |
| 20260506000503 | 77 | 296 | 2.6 | 6.1 | 0.00 | 0.01 | 0.01 | 78 | 1013.2 |
| 20260506000003 | 77 | 297 | 3.5 | 7.8 | 0.00 | 0.01 | 0.01 | 78 | 1013.2 |
| 20260505235502 | 77 | 290 | 3.5 | 7.8 | 0.00 | 0.01 | 0.01 | 78 | 1013.2 |
| 20260505235003 | 77 | 291 | 3.5 | 6.1 | 0.00 | 0.01 | 0.01 | 78 | 1013.1 |
| 20260505234502 | 78 | 295 | 2.6 | 6.1 | 0.00 | 0.01 | 0.01 | 77 | 1013.1 |
| 20260505234024 | 78 | 291 | 3.5 | 6.1 | 0.00 | 0.01 | 0.01 | 77 | 1012.9 |
| 20260505233502 | 78 | 280 | 4.3 | 7.0 | 0.00 | 0.01 | 0.01 | 77 | 1013.0 |
| 20260505233023 | 78 | 281 | 5.2 | 8.7 | 0.00 | 0.01 | 0.01 | 77 | 1013.0 |
| 20260505232502 | 78 | 284 | 5.2 | 9.6 | 0.00 | 0.01 | 0.01 | 76 | 1013.1 |
| 20260505232002 | 78 | 283 | 5.2 | 9.6 | 0.00 | 0.01 | 0.01 | 76 | 1013.2 |
| 20260505231502 | 78 | 284 | 5.2 | 9.6 | 0.00 | 0.01 | 0.01 | 76 | 1013.2 |
| 20260505231003 | 78 | 284 | 5.2 | 9.6 | 0.00 | 0.01 | 0.01 | 76 | 1013.1 |
| 20260505230502 | 78 | 279 | 6.1 | 10.4 | 0.00 | 0.01 | 0.01 | 75 | 1012.9 |
| 20260505230002 | 78 | 277 | 6.1 | 10.4 | 0.00 | 0.01 | 0.01 | 75 | 1012.9 |
| 20260505225502 | 79 | 278 | 6.1 | 11.3 | 0.00 | 0.01 | 0.01 | 75 | 1013.1 |
| 20260505225002 | 79 | 281 | 6.1 | 11.3 | 0.00 | 0.01 | 0.01 | 75 | 1013.1 |
| 20260505224502 | 79 | 283 | 5.2 | 9.6 | 0.00 | 0.01 | 0.01 | 75 | 1013.1 |
| 20260505224002 | 79 | 285 | 5.2 | 9.6 | 0.00 | 0.01 | 0.01 | 75 | 1013.0 |
| 20260505223503 | 79 | 283 | 6.1 | 12.2 | 0.00 | 0.01 | 0.01 | 75 | 1012.8 |
| 20260505223003 | 79 | 281 | 6.1 | 12.2 | 0.00 | 0.01 | 0.01 | 74 | 1012.8 |
| 20260505222503 | 79 | 278 | 6.1 | 10.4 | 0.00 | 0.01 | 0.01 | 75 | 1012.9 |
| 20260505222002 | 79 | 273 | 6.1 | 10.4 | 0.00 | 0.01 | 0.01 | 74 | 1012.8 |
| 20260505221502 | 79 | 275 | 6.1 | 10.4 | 0.00 | 0.01 | 0.01 | 75 | 1012.9 |
| 20260505221002 | 79 | 278 | 5.2 | 10.4 | 0.00 | 0.01 | 0.01 | 74 | 1012.9 |
| 20260505220502 | 79 | 277 | 5.2 | 9.6 | 0.00 | 0.01 | 0.01 | 74 | 1012.9 |
| 20260505220002 | 79 | 275 | 6.1 | 10.4 | 0.00 | 0.01 | 0.01 | 73 | 1012.9 |
| 20260505215502 | 79 | 281 | 5.2 | 10.4 | 0.00 | 0.01 | 0.01 | 73 | 1012.8 |
| 20260505215002 | 80 | 291 | 5.2 | 9.6 | 0.00 | 0.01 | 0.01 | 73 | 1012.8 |
| 20260505214503 | 80 | 284 | 6.1 | 9.6 | 0.00 | 0.01 | 0.01 | 73 | 1012.8 |
| 20260505214002 | 80 | 283 | 6.1 | 9.6 | 0.00 | 0.01 | 0.01 | 72 | 1012.7 |
| 20260505213503 | 80 | 287 | 6.1 | 10.4 | 0.00 | 0.01 | 0.01 | 72 | 1012.7 |
| 20260505213002 | 80 | 288 | 6.1 | 10.4 | 0.00 | 0.01 | 0.01 | 72 | 1012.7 |
| 20260505212502 | 80 | 288 | 7.0 | 13.0 | 0.00 | 0.01 | 0.01 | 72 | 1012.8 |
| 20260505212002 | 80 | 280 | 7.0 | 13.0 | 0.00 | 0.01 | 0.01 | 72 | 1012.9 |
| 20260505211502 | 80 | 274 | 7.8 | 12.2 | 0.00 | 0.01 | 0.01 | 73 | 1013.0 |
| 20260505211002 | 80 | 281 | 7.0 | 12.2 | 0.00 | 0.01 | 0.01 | 72 | 1012.9 |
| 20260505210523 | 80 | 285 | 7.0 | 12.2 | 0.00 | 0.01 | 0.01 | 72 | 1012.9 |
| 20260505210023 | 80 | 275 | 7.8 | 13.0 | 0.00 | 0.01 | 0.01 | 73 | 1013.1 |
| 20260505205503 | 80 | 272 | 7.8 | 13.0 | 0.00 | 0.01 | 0.01 | 71 | 1012.9 |
| 20260505205002 | 81 | 274 | 7.8 | 12.2 | 0.00 | 0.01 | 0.01 | 72 | 1013.0 |
| 20260505204523 | 80 | 274 | 8.7 | 13.0 | 0.00 | 0.01 | 0.01 | 72 | 1013.0 |
| 20260505204023 | 80 | 278 | 7.8 | 13.0 | 0.00 | 0.01 | 0.01 | 71 | 1013.0 |
| 20260505203503 | 81 | 282 | 7.0 | 12.2 | 0.00 | 0.01 | 0.01 | 70 | 1013.0 |
| 20260505203002 | 82 | 285 | 7.0 | 11.3 | 0.00 | 0.01 | 0.01 | 70 | 1013.2 |
| 20260505202502 | 81 | 280 | 7.8 | 12.2 | 0.00 | 0.01 | 0.01 | 71 | 1013.2 |
| 20260505202003 | 81 | 279 | 7.8 | 12.2 | 0.00 | 0.01 | 0.01 | 70 | 1013.2 |
| 20260505201502 | 81 | 279 | 7.0 | 13.0 | 0.00 | 0.01 | 0.01 | 69 | 1013.2 |
| 20260505201003 | 82 | 280 | 7.0 | 13.0 | 0.00 | 0.01 | 0.01 | 70 | 1013.2 |
| 20260505200502 | 81 | 281 | 7.0 | 11.3 | 0.00 | 0.01 | 0.01 | 70 | 1013.2 |
| 20260505200003 | 82 | 273 | 7.8 | 12.2 | 0.00 | 0.01 | 0.01 | 70 | 1013.2 |
| 20260505195502 | 81 | 270 | 7.8 | 12.2 | 0.00 | 0.01 | 0.01 | 70 | 1013.2 |
| 20260505195002 | 82 | 272 | 7.0 | 12.2 | 0.00 | 0.01 | 0.01 | 70 | 1013.2 |
| 20260505194502 | 81 | 272 | 7.8 | 12.2 | 0.00 | 0.01 | 0.01 | 71 | 1013.2 |
| 20260505194023 | 81 | 271 | 7.0 | 11.3 | 0.00 | 0.01 | 0.01 | 69 | 1013.2 |
| 20260505193502 | 82 | 272 | 7.0 | 11.3 | 0.00 | 0.01 | 0.01 | 69 | 1013.2 |
| 20260505193003 | 81 | 271 | 7.0 | 10.4 | 0.00 | 0.01 | 0.01 | 69 | 1013.2 |
| 20260505192502 | 82 | 269 | 6.1 | 10.4 | 0.00 | 0.01 | 0.01 | 69 | 1013.2 |
| 20260505192002 | 82 | 272 | 7.0 | 10.4 | 0.00 | 0.01 | 0.01 | 70 | 1013.2 |
| 20260505191523 | 81 | 275 | 7.0 | 10.4 | 0.00 | 0.01 | 0.01 | 69 | 1013.3 |
| 20260505191003 | 82 | 273 | 5.2 | 10.4 | 0.00 | 0.01 | 0.01 | 68 | 1013.3 |
| 20260505190523 | 82 | 270 | 6.1 | 10.4 | 0.00 | 0.01 | 0.01 | 70 | 1013.2 |
| 20260505190003 | 81 | 269 | 6.1 | 10.4 | 0.00 | 0.01 | 0.01 | 69 | 1013.2 |
| 20260505185502 | 82 | 270 | 5.2 | 10.4 | 0.00 | 0.01 | 0.01 | 70 | 1013.3 |
| 20260505185002 | 82 | 273 | 6.1 | 10.4 | 0.00 | 0.01 | 0.01 | 69 | 1013.4 |
| 20260505184504 | 82 | 270 | 5.2 | 11.3 | 0.00 | 0.01 | 0.01 | 70 | 1013.5 |
| 20260505184023 | 84 | 263 | 2.6 | 11.3 | 0.00 | 0.01 | 0.01 | 67 | 1013.5 |
| 20260505183502 | 85 | 269 | 3.5 | 9.6 | 0.00 | 0.01 | 0.01 | 67 | 1013.6 |
| 20260505183023 | 83 | 271 | 5.2 | 9.6 | 0.00 | 0.01 | 0.01 | 69 | 1013.5 |
| 20260505182503 | 83 | 270 | 4.3 | 11.3 | 0.00 | 0.01 | 0.01 | 68 | 1013.7 |
| 20260505182002 | 83 | 270 | 5.2 | 10.4 | 0.00 | 0.01 | 0.01 | 68 | 1013.7 |
| 20260505181502 | 82 | 270 | 6.1 | 11.3 | 0.00 | 0.01 | 0.01 | 69 | 1013.7 |
| 20260505181002 | 82 | 270 | 5.2 | 11.3 | 0.00 | 0.01 | 0.01 | 69 | 1013.8 |
| 20260505180502 | 84 | 267 | 4.3 | 9.6 | 0.00 | 0.01 | 0.01 | 69 | 1013.8 |
| 20260505180003 | 82 | 268 | 5.2 | 9.6 | 0.00 | 0.01 | 0.01 | 69 | 1013.9 |
| 20260505175502 | 82 | 270 | 6.1 | 10.4 | 0.00 | 0.01 | 0.01 | 69 | 1013.9 |
| 20260505175002 | 82 | 273 | 5.2 | 10.4 | 0.00 | 0.01 | 0.01 | 70 | 1013.9 |
| 20260505174502 | 82 | 274 | 6.1 | 10.4 | 0.00 | 0.01 | 0.01 | 69 | 1014.1 |
| 20260505174002 | 82 | 272 | 6.1 | 10.4 | 0.00 | 0.01 | 0.01 | 68 | 1014.2 |
| 20260505173502 | 83 | 269 | 4.3 | 10.4 | 0.00 | 0.02 | 0.01 | 68 | 1014.2 |
| 20260505173002 | 82 | 269 | 5.2 | 10.4 | 0.00 | 0.02 | 0.01 | 69 | 1014.2 |
| 20260505172523 | 82 | 271 | 6.1 | 12.2 | 0.00 | 0.02 | 0.01 | 69 | 1014.3 |
| 20260505172023 | 82 | 272 | 6.1 | 12.2 | 0.00 | 0.02 | 0.01 | 68 | 1014.3 |
| 20260505171503 | 82 | 272 | 5.2 | 10.4 | 0.00 | 0.02 | 0.01 | 68 | 1014.3 |
| 20260505171002 | 83 | 266 | 3.5 | 10.4 | 0.00 | 0.02 | 0.01 | 69 | 1014.3 |
| 20260505170503 | 84 | 262 | 2.6 | 10.4 | 0.00 | 0.02 | 0.01 | 67 | 1014.3 |
| 20260505170002 | 82 | 270 | 3.5 | 9.6 | 0.00 | 0.02 | 0.01 | 68 | 1014.3 |
| 20260505165503 | 82 | 266 | 3.5 | 9.6 | 0.00 | 0.02 | 0.01 | 68 | 1014.3 |
| 20260505165002 | 84 | 250 | 1.7 | 5.2 | 0.00 | 0.02 | 0.01 | 66 | 1014.3 |
| 20260505164502 | 83 | 266 | 1.7 | 6.1 | 0.00 | 0.02 | 0.01 | 67 | 1014.3 |
| 20260505164003 | 82 | 268 | 2.6 | 6.1 | 0.00 | 0.02 | 0.01 | 69 | 1014.4 |
| 20260505163502 | 83 | 259 | 1.7 | 6.1 | 0.00 | 0.02 | 0.01 | 67 | 1014.4 |
| 20260505163003 | 84 | 193 | 1.7 | 4.3 | 0.00 | 0.02 | 0.01 | 64 | 1014.4 |
| 20260505162502 | 85 | 98 | 1.7 | 4.3 | 0.00 | 0.02 | 0.01 | 61 | 1014.4 |
| 20260505162023 | 85 | 95 | 2.6 | 6.1 | 0.00 | 0.02 | 0.01 | 59 | 1014.3 |
| 20260505161502 | 87 | 138 | 3.5 | 7.8 | 0.00 | 0.02 | 0.01 | 60 | 1014.3 |
| 20260505161003 | 86 | 148 | 3.5 | 7.8 | 0.00 | 0.02 | 0.01 | 61 | 1014.3 |
| 20260505160502 | 86 | 128 | 2.6 | 7.8 | 0.00 | 0.02 | 0.01 | 62 | 1014.3 |
| 20260505153002 | 83 | 90 | 1.7 | 5.2 | 0.00 | 0.02 | 0.01 | 63 | 1014.7 |
| 20260505152502 | 85 | 84 | 2.6 | 7.8 | 0.00 | 0.02 | 0.01 | 61 | 1014.7 |
| 20260505152002 | 86 | 98 | 3.5 | 7.8 | 0.00 | 0.02 | 0.01 | 62 | 1014.8 |
| 20260505151502 | 86 | 96 | 3.5 | 7.8 | 0.00 | 0.02 | 0.01 | 60 | 1014.8 |
| 20260505151023 | 86 | 92 | 2.6 | 7.0 | 0.00 | 0.02 | 0.01 | 62 | 1014.8 |
| 20260505150503 | 85 | 115 | 2.6 | 8.7 | 0.00 | 0.02 | 0.01 | 63 | 1014.8 |
| 20260505140502 | 81 | 118 | 4.3 | 11.3 | 0.00 | 0.02 | 0.01 | 69 | 1014.3 |
| 20260505125002 | 75 | 117 | 2.6 | 7.8 | 0.00 | 0.02 | 0.01 | 75 | 1014.1 |
| 20260505124502 | 74 | 113 | 2.6 | 7.8 | 0.00 | 0.02 | 0.01 | 77 | 1014.0 |
| 20260505124002 | 74 | 102 | 2.6 | 7.0 | 0.00 | 0.02 | 0.01 | 77 | 1014.1 |
| 20260505123502 | 73 | 101 | 2.6 | 7.0 | 0.00 | 0.02 | 0.01 | 78 | 1014.1 |
| 20260505123002 | 72 | 98 | 2.6 | 7.8 | 0.00 | 0.02 | 0.01 | 79 | 1014.1 |
| 20260505122502 | 72 | 92 | 2.6 | 7.8 | 0.00 | 0.02 | 0.01 | 80 | 1014.2 |
| 20260505122002 | 71 | 87 | 2.6 | 7.8 | 0.00 | 0.02 | 0.01 | 82 | 1014.2 |
| 20260505121523 | 71 | 85 | 2.6 | 6.1 | 0.00 | 0.02 | 0.01 | 84 | 1014.0 |
| 20260505121023 | 70 | 90 | 2.6 | 6.1 | 0.00 | 0.02 | 0.01 | 85 | 1013.9 |
| 20260505120502 | 69 | 91 | 2.6 | 6.1 | 0.00 | 0.02 | 0.01 | 86 | 1014.0 |
| 20260505120003 | 68 | 88 | 2.6 | 5.2 | 0.00 | 0.02 | 0.01 | 87 | 1014.0 |
| 20260505115523 | 68 | 86 | 1.7 | 4.3 | 0.00 | 0.02 | 0.01 | 87 | 1013.9 |
| 20260505115023 | 67 | 83 | 1.7 | 5.2 | 0.00 | 0.02 | 0.01 | 87 | 1013.8 |
| 20260505114523 | 67 | 88 | 1.7 | 5.2 | 0.00 | 0.02 | 0.01 | 87 | 1013.7 |
| 20260505114023 | 67 | 88 | 1.7 | 5.2 | 0.00 | 0.02 | 0.01 | 87 | 1013.6 |
| 20260505113502 | 66 | 83 | 1.7 | 4.3 | 0.00 | 0.02 | 0.01 | 87 | 1013.5 |
| 20260505113023 | 66 | 88 | 1.7 | 4.3 | 0.00 | 0.02 | 0.01 | 87 | 1013.4 |
| 20260505112502 | 66 | 81 | 1.7 | 4.3 | 0.00 | 0.02 | 0.01 | 87 | 1013.4 |
| 20260505112003 | 66 | 78 | 1.7 | 4.3 | 0.00 | 0.02 | 0.01 | 87 | 1013.4 |
| 20260505111502 | 66 | 85 | 1.7 | 3.5 | 0.00 | 0.02 | 0.01 | 87 | 1013.3 |
| 20260505111003 | 65 | 86 | 1.7 | 3.5 | 0.00 | 0.02 | 0.01 | 87 | 1013.2 |
| 20260505110502 | 65 | 78 | 0.9 | 3.5 | 0.00 | 0.02 | 0.01 | 87 | 1013.3 |
| 20260505102002 | 66 | 82 | 0.9 | 3.5 | 0.00 | 0.02 | 0.01 | 86 | 1012.8 |
| 20260505101504 | 66 | 84 | 0.9 | 3.5 | 0.00 | 0.02 | 0.01 | 86 | 1012.9 |
| 20260505101004 | 66 | 79 | 0.9 | 3.5 | 0.00 | 0.02 | 0.01 | 86 | 1012.9 |
| 20260505100502 | 66 | 78 | 0.9 | 3.5 | 0.00 | 0.02 | 0.01 | 86 | 1013.0 |
| 20260505100003 | 66 | 84 | 1.7 | 4.3 | 0.00 | 0.02 | 0.01 | 86 | 1012.8 |
| 20260505095502 | 66 | 90 | 1.7 | 4.3 | 0.00 | 0.02 | 0.01 | 86 | 1012.7 |
| 20260505095002 | 66 | 84 | 0.9 | 3.5 | 0.00 | 0.02 | 0.01 | 86 | 1012.7 |
| 20260505094503 | 66 | 82 | 1.7 | 4.3 | 0.00 | 0.02 | 0.01 | 86 | 1012.7 |
| 20260505094002 | 66 | 84 | 1.7 | 4.3 | 0.00 | 0.02 | 0.01 | 86 | 1012.6 |
| 20260505093502 | 66 | 83 | 1.7 | 3.5 | 0.00 | 0.02 | 0.01 | 86 | 1012.6 |
| 20260505093004 | 66 | 80 | 1.7 | 3.5 | 0.00 | 0.02 | 0.01 | 86 | 1012.5 |
| 20260505092503 | 66 | 69 | 0.9 | 3.5 | 0.00 | 0.02 | 0.01 | 86 | 1012.4 |
| 20260505092002 | 66 | 70 | 1.7 | 4.3 | 0.00 | 0.02 | 0.01 | 85 | 1012.5 |
| 20260505091502 | 66 | 82 | 1.7 | 4.3 | 0.00 | 0.02 | 0.01 | 85 | 1012.5 |
| 20260505091002 | 66 | 86 | 1.7 | 3.5 | 0.00 | 0.02 | 0.01 | 85 | 1012.3 |
| 20260505090503 | 66 | 83 | 1.7 | 5.2 | 0.00 | 0.02 | 0.01 | 85 | 1012.3 |
| 20260505090003 | 66 | 79 | 1.7 | 6.1 | 0.00 | 0.02 | 0.01 | 85 | 1012.4 |
| 20260505085502 | 66 | 79 | 2.6 | 6.1 | 0.00 | 0.02 | 0.01 | 85 | 1012.3 |
| 20260505085002 | 66 | 79 | 1.7 | 5.2 | 0.00 | 0.02 | 0.01 | 85 | 1012.3 |
| 20260505084503 | 67 | 78 | 1.7 | 4.3 | 0.00 | 0.02 | 0.01 | 85 | 1012.4 |
| 20260505084002 | 67 | 81 | 1.7 | 6.1 | 0.00 | 0.02 | 0.01 | 85 | 1012.3 |
| 20260505083502 | 67 | 85 | 1.7 | 6.1 | 0.00 | 0.02 | 0.01 | 85 | 1012.3 |
| 20260505083002 | 67 | 82 | 1.7 | 3.5 | 0.00 | 0.02 | 0.01 | 85 | 1012.4 |
| 20260505082502 | 67 | 78 | 1.7 | 4.3 | 0.00 | 0.02 | 0.01 | 85 | 1012.3 |
| 20260505082002 | 67 | 82 | 1.7 | 5.2 | 0.00 | 0.02 | 0.01 | 85 | 1012.4 |
| 20260505081502 | 67 | 81 | 1.7 | 5.2 | 0.00 | 0.02 | 0.01 | 85 | 1012.3 |
| 20260505081002 | 67 | 83 | 1.7 | 5.2 | 0.00 | 0.02 | 0.01 | 85 | 1012.2 |
| 20260505080502 | 67 | 86 | 1.7 | 4.3 | 0.00 | 0.02 | 0.01 | 85 | 1012.3 |
| 20260505080003 | 67 | 83 | 1.7 | 4.3 | 0.00 | 0.02 | 0.01 | 84 | 1012.3 |
| 20260505075502 | 67 | 81 | 1.7 | 3.5 | 0.00 | 0.02 | 0.01 | 84 | 1012.4 |
| 20260505075003 | 67 | 77 | 1.7 | 3.5 | 0.00 | 0.02 | 0.01 | 84 | 1012.7 |
| 20260505074502 | 67 | 76 | 1.7 | 3.5 | 0.00 | 0.02 | 0.01 | 84 | 1012.6 |
| 20260505074002 | 67 | 78 | 1.7 | 4.3 | 0.00 | 0.02 | 0.01 | 84 | 1012.7 |
| 20260505073523 | 68 | 77 | 1.7 | 4.3 | 0.00 | 0.02 | 0.01 | 84 | 1012.7 |
| 20260505073002 | 68 | 76 | 1.7 | 3.5 | 0.00 | 0.02 | 0.01 | 84 | 1012.7 |
| 20260505072502 | 68 | 71 | 1.7 | 3.5 | 0.00 | 0.02 | 0.01 | 84 | 1012.7 |
| 20260505072023 | 68 | 69 | 1.7 | 3.5 | 0.00 | 0.03 | 0.01 | 84 | 1012.7 |
| 20260505071502 | 68 | 69 | 1.7 | 3.5 | 0.00 | 0.03 | 0.01 | 83 | 1012.6 |
| 20260505071002 | 68 | 77 | 1.7 | 4.3 | 0.00 | 0.03 | 0.01 | 83 | 1012.6 |
| 20260505070502 | 68 | 80 | 2.6 | 5.2 | 0.00 | 0.03 | 0.01 | 83 | 1012.7 |
| 20260505070023 | 68 | 73 | 2.6 | 5.2 | 0.00 | 0.03 | 0.01 | 83 | 1012.7 |
| 20260505065502 | 68 | 72 | 1.7 | 5.2 | 0.00 | 0.03 | 0.01 | 83 | 1012.8 |
| 20260505065002 | 68 | 82 | 1.7 | 5.2 | 0.00 | 0.03 | 0.01 | 83 | 1012.7 |
| 20260505064502 | 68 | 84 | 1.7 | 5.2 | 0.00 | 0.03 | 0.01 | 83 | 1012.8 |
| 20260505064002 | 69 | 81 | 1.7 | 4.3 | 0.00 | 0.03 | 0.01 | 83 | 1012.7 |
| 20260505063502 | 69 | 73 | 1.7 | 3.5 | 0.00 | 0.03 | 0.01 | 83 | 1012.8 |
| 20260505063002 | 69 | 62 | 1.7 | 3.5 | 0.01 | 0.03 | 0.01 | 83 | 1013.2 |
| 20260505062502 | 69 | 57 | 1.7 | 3.5 | 0.01 | 0.03 | 0.01 | 83 | 1013.2 |
| 20260505062003 | 69 | 64 | 1.7 | 3.5 | 0.01 | 0.03 | 0.01 | 83 | 1013.3 |
| 20260505061503 | 69 | 74 | 1.7 | 3.5 | 0.01 | 0.03 | 0.01 | 82 | 1013.5 |
| 20260505061003 | 69 | 73 | 1.7 | 3.5 | 0.01 | 0.03 | 0.01 | 82 | 1013.6 |
| 20260505060502 | 69 | 74 | 1.7 | 3.5 | 0.01 | 0.03 | 0.01 | 82 | 1013.5 |
| 20260505060003 | 69 | 77 | 1.7 | 3.5 | 0.01 | 0.03 | 0.01 | 82 | 1013.6 |
| 20260505055502 | 69 | 74 | 1.7 | 4.3 | 0.01 | 0.03 | 0.01 | 82 | 1013.3 |
| 20260505055003 | 69 | 72 | 1.7 | 4.3 | 0.01 | 0.03 | 0.01 | 82 | 1013.3 |
| 20260505054502 | 69 | 72 | 1.7 | 4.3 | 0.01 | 0.03 | 0.01 | 82 | 1013.4 |
| 20260505054003 | 69 | 69 | 1.7 | 4.3 | 0.01 | 0.03 | 0.01 | 82 | 1013.3 |
| 20260505053502 | 69 | 70 | 1.7 | 3.5 | 0.01 | 0.03 | 0.01 | 82 | 1013.5 |
| 20260505053024 | 70 | 78 | 1.7 | 3.5 | 0.00 | 0.02 | 0.00 | 81 | 1013.6 |
| 20260505052502 | 70 | 92 | 0.9 | 2.6 | 0.00 | 0.02 | 0.00 | 81 | 1013.6 |
| 20260505052002 | 70 | 85 | 0.9 | 2.6 | 0.00 | 0.02 | 0.00 | 81 | 1013.6 |
| 20260505051503 | 70 | 81 | 0.9 | 2.6 | 0.00 | 0.02 | 0.00 | 81 | 1013.7 |
| 20260505051002 | 70 | 86 | 0.9 | 3.5 | 0.00 | 0.02 | 0.00 | 80 | 1013.7 |
| 20260505050502 | 70 | 85 | 0.9 | 3.5 | 0.00 | 0.02 | 0.00 | 80 | 1013.7 |